User: anonymous   Login
Location: Observatorio Las Palmas
(29.0667°N, 110.9333°W)
Time: 04:09:18
(UTC-07:00)
Language:

Skynet4D Del rocket - Orbit

View from above orbital plane
View from above orbital plane
View from above satellite
View from above satellite

Ground track
Ground track

The orbit data is extracted from the following two-line orbital elements,

1 25135U 98002B   14304.08296992  .00000222  00000-0  90943-4 0  2428
2 25135 026.8828 201.0339 0356679 121.0940 343.5470 13.62271408837494
Epoch (UTC): 31 October 2014 01:59:28
Eccentricity: 0.0356679
inclination: 26.8828°
perigee height: 763 km
apogee height: 1291 km
right ascension of ascending node: 201.0339°
argument of perigee: 121.0940°
revolutions per day: 13.62271408
mean anomaly at epoch: 343.5470°
orbit number at epoch: 83749

The dashed part of the orbit path shows where the satellite is in the earth's shadow,  

DLR